sat.trackr.live / text

‹ back to catalog

STARLINK-35053

NORAD 65609 · 2025-207T

PAYLOAD ACTIVE UNKNOWN

§ Identity

Operator
Country
US
Launch date
2025-09-13
Launch site
AFWTR
Launch vehicle
Mass (kg)
RCS (m²)

Purposes: comms

External: N2YO · Heavens-Above · Gunter

§ Orbital elements

Epoch: 2026-05-25T04:15:34.852608Z

Period
95.64 min
Inclination
97.4457°
Eccentricity
0.0001884
Mean motion
15.05658551 rev/d
Perigee alt
548.2 km
Apogee alt
550.8 km
Semi-major
6,927.6 km
B*
3.2464e-4
RAAN
213.7361°
Arg perigee
139.9133°
Mean anomaly
220.2233°
Rev number
3,961

§ Raw data

STARLINK-350531 65609U 25207T   26145.17748672  .00004630  00000+0  32464-3 0  99962 65609  97.4457 213.7361 0001884 139.9133 220.2233 15.05658551 39611

JSON: /api/v1/satellites/65609 · /tle

For live sub-satellite position, see the globe view (requires WebGL).

§ Visibility from observer

Set your observer location to see the next 7 days of passes ≥ 10°. The values pass through the URL so the page stays shareable.

No JS? Fill the form by hand. The geolocation button needs JavaScript.